{"data":{"norad_id":66570,"epoch":"2026-05-25T01:18:23.438016Z","epoch_age_seconds":64149,"freshness":"FRESH","line1":"1 66570U 25268P   26145.05443794  .00010219  00000+0  38031-3 0  9991","line2":"2 66570  42.9952 276.2419 0000502   5.7134 354.3723 15.27584124 29631","mean_motion":15.27584124,"eccentricity":5.02e-5,"inclination_deg":42.9952,"raan_deg":276.2419,"arg_perigee_deg":5.7134,"mean_anomaly_deg":354.3723,"bstar":0.00038031,"rev_number":2963,"period_min":94.266494222874,"perigee_km":482.69231640572,"apogee_km":483.38117824995,"semimajor_km":6861.1737473278,"source":"CELESTRAK","updated_at":"2026-05-25T13:38:21.281850Z"}}